{"data":{"norad_id":54658,"epoch":"2026-05-25T05:24:42.535584Z","epoch_age_seconds":59500,"freshness":"FRESH","line1":"1 54658U 22166S   26145.22549231  .00000091  00000+0  18819-3 0  9990","line2":"2 54658  87.9260 248.5309 0001982 100.3842 259.7515 13.21825069168401","mean_motion":13.21825069,"eccentricity":0.0001982,"inclination_deg":87.926,"raan_deg":248.5309,"arg_perigee_deg":100.3842,"mean_anomaly_deg":259.7515,"bstar":0.00018819,"rev_number":16840,"period_min":108.94028519896,"perigee_km":1176.2593380828,"apogee_km":1179.2544944312,"semimajor_km":7555.893916257,"source":"CELESTRAK","updated_at":"2026-05-25T13:38:22.632421Z"}}